Time,TemperatureF,DewpointF,PressureIn,WindDirection,WindDirectionDegrees,WindSpeedMPH,WindSpeedGustMPH,Humidity,HourlyPrecipIn,Conditions,Clouds,dailyrainin,SoftwareType,DateUTC
2013-11-08 00:11:00,46.3,37.0,29.84,North,11,8.0,18.0,71,0.00,,,1.04,weatherlink.com 1.10,2013-11-08 05:11:00,
2013-11-08 00:26:00,46.1,36.0,29.84,North,360,7.0,18.0,69,0.00,,,1.04,weatherlink.com 1.10,2013-11-08 05:26:00,
2013-11-08 00:41:00,45.9,35.0,29.85,NW,324,10.0,18.0,67,0.00,,,1.04,weatherlink.com 1.10,2013-11-08 05:41:00,
2013-11-08 00:56:00,45.6,35.0,29.85,NW,321,5.0,15.0,67,0.00,,,1.04,weatherlink.com 1.10,2013-11-08 05:56:00,
2013-11-08 01:11:00,45.0,34.0,29.85,NW,321,10.0,12.0,66,0.00,,,1.04,weatherlink.com 1.10,2013-11-08 06:11:00,
2013-11-08 01:26:00,44.7,34.0,29.86,WNW,282,5.0,15.0,67,0.00,,,1.04,weatherlink.com 1.10,2013-11-08 06:26:00,
2013-11-08 01:41:00,44.7,34.0,29.86,NW,319,7.0,17.0,67,0.00,,,1.04,weatherlink.com 1.10,2013-11-08 06:41:00,
2013-11-08 01:56:00,44.3,35.0,29.86,West,278,5.0,12.0,70,0.00,,,1.04,weatherlink.com 1.10,2013-11-08 06:56:00,
2013-11-08 02:11:00,43.7,33.0,29.85,WNW,293,3.0,9.0,67,0.00,,,1.04,weatherlink.com 1.10,2013-11-08 07:11:00,
2013-11-08 02:26:00,43.6,32.0,29.86,West,271,6.0,9.0,65,0.00,,,1.04,weatherlink.com 1.10,2013-11-08 07:26:00,
2013-11-08 02:41:00,43.5,31.0,29.86,NNW,328,4.0,13.0,62,0.00,,,1.04,weatherlink.com 1.10,2013-11-08 07:41:00,
2013-11-08 02:56:00,43.4,29.0,29.86,WNW,298,10.0,13.0,58,0.00,,,1.04,weatherlink.com 1.10,2013-11-08 07:56:00,
2013-11-08 03:12:00,43.2,30.0,29.87,NW,306,2.0,13.0,61,0.00,,,1.04,weatherlink.com 1.10,2013-11-08 08:12:00,
2013-11-08 03:27:00,42.8,29.0,29.87,West,271,4.0,14.0,59,0.00,,,1.04,weatherlink.com 1.10,2013-11-08 08:27:00,
2013-11-08 03:42:00,42.5,29.0,29.88,WNW,301,6.0,20.0,60,0.00,,,1.04,weatherlink.com 1.10,2013-11-08 08:42:00,
2013-11-08 03:57:00,42.4,29.0,29.89,West,262,5.0,12.0,60,0.00,,,0.00,weatherlink.com 1.10,2013-11-08 08:57:00,
2013-11-08 04:11:00,42.3,30.0,29.89,NNW,347,6.0,17.0,61,0.00,,,0.00,weatherlink.com 1.10,2013-11-08 09:11:00,
2013-11-08 04:27:00,41.9,29.0,29.89,North,1,5.0,12.0,60,0.00,,,0.00,weatherlink.com 1.10,2013-11-08 09:27:00,
2013-11-08 04:42:00,41.8,28.0,29.90,NW,304,7.0,12.0,59,0.00,,,0.00,weatherlink.com 1.10,2013-11-08 09:42:00,
2013-11-08 04:57:00,41.7,28.0,29.91,WNW,290,5.0,13.0,58,0.00,,,0.00,weatherlink.com 1.10,2013-11-08 09:57:00,
2013-11-08 05:12:00,41.4,27.0,29.91,North,359,2.0,11.0,58,0.00,,,0.00,weatherlink.com 1.10,2013-11-08 10:12:00,
2013-11-08 05:27:00,41.2,27.0,29.92,NW,306,9.0,14.0,57,0.00,,,0.00,weatherlink.com 1.10,2013-11-08 10:27:00,
2013-11-08 05:43:00,41.3,26.0,29.92,NW,311,2.0,12.0,55,0.00,,,0.00,weatherlink.com 1.10,2013-11-08 10:43:00,
2013-11-08 05:58:00,41.1,27.0,29.92,WNW,296,5.0,13.0,58,0.00,,,0.00,weatherlink.com 1.10,2013-11-08 10:58:00,
2013-11-08 06:13:00,41.2,27.0,29.93,NW,317,2.0,13.0,57,0.00,,,0.00,weatherlink.com 1.10,2013-11-08 11:13:00,
2013-11-08 06:28:00,41.2,27.0,29.94,WNW,290,4.0,13.0,58,0.00,,,0.00,weatherlink.com 1.10,2013-11-08 11:28:00,
2013-11-08 06:43:00,41.3,27.0,29.95,North,359,4.0,10.0,57,0.00,,,0.00,weatherlink.com 1.10,2013-11-08 11:43:00,
2013-11-08 06:58:00,41.5,28.0,29.96,West,272,2.0,9.0,60,0.00,,,0.00,weatherlink.com 1.10,2013-11-08 11:58:00,
2013-11-08 07:13:00,41.7,28.0,29.96,WNW,297,3.0,10.0,59,0.00,,,0.00,weatherlink.com 1.10,2013-11-08 12:13:00,
2013-11-08 07:28:00,42.2,28.0,29.96,NNW,328,2.0,12.0,58,0.00,,,0.00,weatherlink.com 1.10,2013-11-08 12:28:00,
2013-11-08 07:43:00,42.7,30.0,29.96,West,275,2.0,5.0,60,0.00,,,0.00,weatherlink.com 1.10,2013-11-08 12:43:00,
2013-11-08 07:58:00,43.5,30.0,29.96,NNW,333,5.0,10.0,59,0.00,,,0.00,weatherlink.com 1.10,2013-11-08 12:58:00,
2013-11-08 08:13:00,44.1,31.0,29.97,West,281,5.0,9.0,60,0.00,,,0.00,weatherlink.com 1.10,2013-11-08 13:13:00,
2013-11-08 08:28:00,45.2,33.0,29.97,West,274,2.0,11.0,62,0.00,,,0.00,weatherlink.com 1.10,2013-11-08 13:28:00,
2013-11-08 08:43:00,45.8,34.0,29.97,West,269,9.0,15.0,64,0.00,,,0.00,weatherlink.com 1.10,2013-11-08 13:43:00,
2013-11-08 08:58:00,45.9,35.0,29.97,WSW,255,4.0,11.0,67,0.00,,,0.00,weatherlink.com 1.10,2013-11-08 13:58:00,
2013-11-08 09:13:00,45.5,36.0,29.96,NNW,341,7.0,13.0,70,0.00,,,0.00,weatherlink.com 1.10,2013-11-08 14:13:00,
2013-11-08 09:28:00,46.3,37.0,29.96,West,275,3.0,13.0,69,0.00,,,0.00,weatherlink.com 1.10,2013-11-08 14:28:00,
2013-11-08 09:43:00,46.7,37.0,29.96,West,270,5.0,12.0,70,0.00,,,0.00,weatherlink.com 1.10,2013-11-08 14:43:00,
2013-11-08 09:58:00,46.6,36.0,29.96,NW,316,5.0,12.0,68,0.00,,,0.00,weatherlink.com 1.10,2013-11-08 14:58:00,
2013-11-08 10:14:00,47.2,37.0,29.95,NW,304,6.0,12.0,69,0.00,,,0.00,weatherlink.com 1.10,2013-11-08 15:14:00,
2013-11-08 10:29:00,46.4,36.0,29.95,West,274,5.0,11.0,68,0.00,,,0.00,weatherlink.com 1.10,2013-11-08 15:29:00,
2013-11-08 10:44:00,47.9,38.0,29.95,WSW,247,5.0,10.0,68,0.00,,,0.00,weatherlink.com 1.10,2013-11-08 15:44:00,
2013-11-08 10:59:00,47.3,36.0,29.94,NW,326,9.0,16.0,64,0.00,,,0.00,weatherlink.com 1.10,2013-11-08 15:59:00,
2013-11-08 11:13:00,47.6,35.0,29.94,WNW,296,5.0,13.0,63,0.00,,,0.00,weatherlink.com 1.10,2013-11-08 16:13:00,
2013-11-08 11:28:00,47.9,37.0,29.93,WNW,295,7.0,15.0,65,0.00,,,0.00,weatherlink.com 1.10,2013-11-08 16:28:00,
2013-11-08 11:44:00,48.5,36.0,29.93,WNW,283,4.0,14.0,63,0.00,,,0.00,weatherlink.com 1.10,2013-11-08 16:44:00,
2013-11-08 11:59:00,49.0,35.0,29.92,West,279,7.0,13.0,60,0.00,,,0.00,weatherlink.com 1.10,2013-11-08 16:59:00,
2013-11-08 12:13:00,49.2,37.0,29.92,WSW,254,5.0,13.0,62,0.00,,,0.00,weatherlink.com 1.10,2013-11-08 17:13:00,
2013-11-08 12:28:00,48.9,36.0,29.91,West,271,10.0,12.0,61,0.00,,,0.00,weatherlink.com 1.10,2013-11-08 17:28:00,
2013-11-08 12:43:00,47.9,34.0,29.91,NNW,332,8.0,12.0,59,0.00,,,0.00,weatherlink.com 1.10,2013-11-08 17:43:00,
2013-11-08 12:58:00,48.8,35.0,29.91,WNW,294,4.0,13.0,59,0.00,,,0.00,weatherlink.com 1.10,2013-11-08 17:58:00,
2013-11-08 13:13:00,48.8,35.0,29.92,West,268,3.0,17.0,59,0.00,,,0.00,weatherlink.com 1.10,2013-11-08 18:13:00,
2013-11-08 13:28:00,48.9,34.0,29.92,NW,323,8.0,16.0,56,0.00,,,0.00,weatherlink.com 1.10,2013-11-08 18:28:00,
2013-11-08 13:43:00,48.4,33.0,29.92,WSW,247,4.0,15.0,56,0.00,,,0.00,weatherlink.com 1.10,2013-11-08 18:43:00,
2013-11-08 13:58:00,48.6,33.0,29.92,WSW,244,13.0,16.0,55,0.00,,,0.00,weatherlink.com 1.10,2013-11-08 18:58:00,
2013-11-08 14:13:00,48.5,32.0,29.93,NNW,343,8.0,14.0,54,0.00,,,0.00,weatherlink.com 1.10,2013-11-08 19:13:00,
2013-11-08 14:28:00,48.4,32.0,29.93,NW,322,5.0,18.0,53,0.00,,,0.00,weatherlink.com 1.10,2013-11-08 19:28:00,
2013-11-08 14:43:00,47.8,30.0,29.93,WNW,291,6.0,19.0,51,0.00,,,0.00,weatherlink.com 1.10,2013-11-08 19:43:00,
2013-11-08 14:58:00,48.1,31.0,29.93,NW,325,4.0,14.0,53,0.00,,,0.00,weatherlink.com 1.10,2013-11-08 19:58:00,
2013-11-08 15:13:00,47.8,31.0,29.94,WNW,288,11.0,14.0,53,0.00,,,0.00,weatherlink.com 1.10,2013-11-08 20:13:00,
2013-11-08 15:28:00,47.8,31.0,29.94,WSW,257,4.0,16.0,52,0.00,,,0.00,weatherlink.com 1.10,2013-11-08 20:28:00,
2013-11-08 15:43:00,48.2,31.0,29.95,WNW,296,4.0,16.0,52,0.00,,,0.00,weatherlink.com 1.10,2013-11-08 20:43:00,
2013-11-08 15:59:00,47.5,29.0,29.95,NW,307,9.0,23.0,49,0.00,,,0.00,weatherlink.com 1.10,2013-11-08 20:59:00,
2013-11-08 16:13:00,47.0,29.0,29.96,North,354,5.0,18.0,49,0.00,,,0.00,weatherlink.com 1.10,2013-11-08 21:13:00,
2013-11-08 16:28:00,46.7,29.0,29.96,NW,314,2.0,19.0,50,0.00,,,0.00,weatherlink.com 1.10,2013-11-08 21:28:00,
2013-11-08 16:43:00,46.2,30.0,29.97,North,359,3.0,20.0,54,0.00,,,0.00,weatherlink.com 1.10,2013-11-08 21:43:00,
2013-11-08 16:59:00,46.0,30.0,29.98,NW,315,7.0,16.0,55,0.00,,,0.00,weatherlink.com 1.10,2013-11-08 21:59:00,
2013-11-08 17:13:00,45.9,29.0,29.99,NW,324,5.0,16.0,52,0.00,,,0.00,weatherlink.com 1.10,2013-11-08 22:13:00,
2013-11-08 17:28:00,45.9,30.0,30.00,WSW,244,12.0,24.0,54,0.00,,,0.00,weatherlink.com 1.10,2013-11-08 22:28:00,
2013-11-08 17:43:00,46.0,29.0,30.01,WNW,293,8.0,17.0,51,0.00,,,0.00,weatherlink.com 1.10,2013-11-08 22:43:00,
2013-11-08 17:58:00,45.9,28.0,30.02,NW,311,14.0,24.0,50,0.00,,,0.00,weatherlink.com 1.10,2013-11-08 22:58:00,
2013-11-08 18:14:00,45.4,28.0,30.02,North,352,4.0,19.0,51,0.00,,,0.00,weatherlink.com 1.10,2013-11-08 23:14:00,
2013-11-08 18:29:00,44.9,28.0,30.02,NW,325,6.0,19.0,51,0.00,,,0.00,weatherlink.com 1.10,2013-11-08 23:29:00,
2013-11-08 18:44:00,44.4,26.0,30.03,NNW,328,7.0,21.0,49,0.00,,,0.00,weatherlink.com 1.10,2013-11-08 23:44:00,
2013-11-08 18:59:00,43.9,27.0,30.04,NW,316,1.0,15.0,51,0.00,,,0.00,weatherlink.com 1.10,2013-11-08 23:59:00,
2013-11-08 19:15:00,43.7,26.0,30.05,WNW,296,9.0,17.0,51,0.00,,,0.00,weatherlink.com 1.10,2013-11-09 00:15:00,
2013-11-08 19:30:00,43.5,26.0,30.05,WNW,285,12.0,20.0,51,0.00,,,0.00,weatherlink.com 1.10,2013-11-09 00:30:00,
2013-11-08 19:45:00,43.2,25.0,30.06,NW,306,8.0,21.0,49,0.00,,,0.00,weatherlink.com 1.10,2013-11-09 00:45:00,
2013-11-08 20:00:00,42.9,25.0,30.07,WNW,292,5.0,17.0,50,0.00,,,0.00,weatherlink.com 1.10,2013-11-09 01:00:00,
2013-11-08 20:14:00,42.5,26.0,30.07,NNW,342,2.0,17.0,53,0.00,,,0.00,weatherlink.com 1.10,2013-11-09 01:14:00,
2013-11-08 20:29:00,42.3,25.0,30.08,North,349,9.0,21.0,50,0.00,,,0.00,weatherlink.com 1.10,2013-11-09 01:29:00,
2013-11-08 20:44:00,42.1,25.0,30.09,NNW,331,14.0,16.0,52,0.00,,,0.00,weatherlink.com 1.10,2013-11-09 01:44:00,
2013-11-08 20:59:00,42.0,25.0,30.09,North,2,5.0,19.0,51,0.00,,,0.00,weatherlink.com 1.10,2013-11-09 01:59:00,
2013-11-08 21:15:00,41.8,25.0,30.10,West,278,6.0,18.0,52,0.00,,,0.00,weatherlink.com 1.10,2013-11-09 02:15:00,
2013-11-08 21:30:00,41.3,26.0,30.10,WNW,295,2.0,11.0,54,0.00,,,0.00,weatherlink.com 1.10,2013-11-09 02:30:00,
2013-11-08 21:45:00,41.1,25.0,30.11,NW,319,4.0,12.0,54,0.00,,,0.00,weatherlink.com 1.10,2013-11-09 02:45:00,
2013-11-08 22:00:00,40.9,26.0,30.11,NW,307,5.0,15.0,55,0.00,,,0.00,weatherlink.com 1.10,2013-11-09 03:00:00,
2013-11-08 22:14:00,40.7,26.0,30.11,NW,311,3.0,12.0,56,0.00,,,0.00,weatherlink.com 1.10,2013-11-09 03:14:00,
2013-11-08 22:29:00,40.4,26.0,30.12,North,1,1.0,10.0,57,0.00,,,0.00,weatherlink.com 1.10,2013-11-09 03:29:00,
2013-11-08 22:44:00,40.3,26.0,30.12,WNW,300,3.0,12.0,58,0.00,,,0.00,weatherlink.com 1.10,2013-11-09 03:44:00,
2013-11-08 23:00:00,40.3,27.0,30.12,North,360,9.0,14.0,59,0.00,,,0.00,weatherlink.com 1.10,2013-11-09 04:00:00,
2013-11-08 23:14:00,40.2,27.0,30.13,WNW,284,3.0,11.0,60,0.00,,,0.00,weatherlink.com 1.10,2013-11-09 04:14:00,
2013-11-08 23:29:00,40.1,27.0,30.13,WNW,300,7.0,15.0,61,0.00,,,0.00,weatherlink.com 1.10,2013-11-09 04:29:00,
2013-11-08 23:44:00,40.1,27.0,30.13,WNW,289,3.0,14.0,61,0.00,,,0.00,weatherlink.com 1.10,2013-11-09 04:44:00,
2013-11-08 23:59:00,39.8,28.0,30.14,WSW,252,15.0,15.0,62,0.00,,,0.00,weatherlink.com 1.10,2013-11-09 04:59:00,